Helicity
-11 -2 2 10 17 24 53 65 83 104 102 122 89 57 82 46 31 -7 -5 -3 2 -21 -23 -20 23 27 11 20 13 14 21 8 13 -35 -35 9 23 73 122 86 84 124 158 198 307
-8 -4 -3 7 18 27 60 75 92 106 113 105 75 45 65 30 0 3 4 11 2 -9 -24 14 20 73 30 47 44 27 19 9 -27 -65 -25 -47 -52 -16 70 62 54 71 278 286 284
-3 -7 5 19 30 45 77 85 91 107 109 95 68 54 55 31 2 23 28 20 -3 -7 -36 -18 -15 6 16 4 55 49 52 11 -31 -10 44 21 -11 -14 32 81 62 -1 235 394 335
-4 -3 20 28 38 61 86 94 91 113 98 86 80 54 51 2 41 39 37 18 -4 -31 -33 -15 4 21 10 24 46 109 45 9 39 48 72 61 44 21 57 138 57 -1 -57 407 443
3 1 22 28 35 65 81 96 106 102 100 87 73 50 28 6 25 61 32 13 -9 -19 -15 13 0 -5 25 19 60 69 64 38 42 52 95 86 73 74 119 87 5 12 61 241 293
1 9 17 15 28 63 75 90 107 85 102 83 70 63 22 10 67 46 29 34 6 -5 5 9 30 31 22 30 45 52 17 29 49 54 57 88 106 100 165 74 61 67 61 121 276
13 2 0 1 28 62 75 80 91 90 94 69 56 36 21 4 78 58 46 42 61 32 25 65 36 34 42 18 59 70 40 37 65 39 117 160 85 140 151 62 65 81 105 97 184
0 -4 -19 -19 28 54 72 78 89 87 68 54 29 33 10 86 82 68 55 53 42 40 49 54 33 27 50 49 27 69 62 49 71 122 118 115 111 89 -16 68 63 62 69 112 157
4 16 -2 4 31 51 59 72 74 66 32 29 25 17 7 92 54 68 83 31 72 38 34 32 31 29 69 34 38 80 57 17 16 79 82 101 101 169 144 42 86 85 95 128 129
16 19 25 23 29 37 41 45 37 36 17 21 27 38 64 49 81 53 50 37 34 34 15 19 11 16 66 34 60 23 20 1 21 48 86 105 197 164 117 80 42 40 68 78 68
36 41 40 38 43 43 36 16 20 11 31 41 33 21 59 77 51 29 46 43 28 31 21 43 50 34 18 27 41 27 23 37 31 89 52 62 53 108 98 29 65 65 94 94 71
55 47 33 42 43 26 11 18 7 23 17 24 -8 64 115 101 50 42 76 37 45 25 23 52 56 45 55 37 29 30 25 42 28 55 19 57 82 74 15 77 66 86 70 59 59
53 49 43 48 38 14 9 20 31 29 33 32 83 52 84 60 55 60 61 30 15 4 -4 29 10 32 16 18 20 34 38 40 50 9 12 42 22 47 96 127 54 65 48 31 33
58 52 48 57 47 11 26 33 28 18 28 40 35 46 87 70 33 101 72 54 29 8 17 3 69 42 36 21 30 31 87 50 41 50 53 46 36 42 117 95 101 33 43 43 18
63 51 50 33 75 51 60 36 24 18 62 53 49 39 38 37 38 24 32 28 -1 -8 42 24 38 43 28 56 73 59 56 55 68 51 42 62 69 20 89 233 212 134 76 66 35
67 53 44 36 33 36 42 26 22 67 53 42 38 21 25 5 24 32 17 29 33 22 35 37 73 56 65 59 60 33 33 87 85 64 37 58 65 14 70 175 226 184 123 134 41
65 40 33 62 63 41 28 35 82 89 47 41 46 34 1 47 28 29 39 43 37 31 51 50 95 83 55 56 73 29 49 40 56 56 51 145 122 195 29 84 107 100 200 78 33
75 39 29 66 39 33 41 64 107 87 93 56 23 28 28 48 28 42 39 41 40 66 45 52 54 72 68 75 63 59 65 66 109 111 95 138 112 51 60 87 106 177 55 59 20
74 50 50 47 49 61 65 80 94 102 79 33 44 36 36 49 64 39 44 29 122 56 60 76 74 113 108 101 73 84 84 77 109 85 117 86 57 82 68 112 109 13 54 35 5
68 55 55 63 63 75 82 57 80 73 66 62 52 27 47 64 55 32 47 114 94 108 84 105 67 96 87 62 66 103 87 124 105 109 135 155 152 104 146 134 47 -29 59 24 101
76 83 73 68 91 105 85 86 72 52 58 63 70 75 57 107 57 65 92 107 119 100 70 106 88 103 91 74 92 116 99 75 125 125 171 155 162 149 55 45 55 13 54 106 187
112 100 69 102 136 119 76 79 107 56 56 80 75 79 80 86 78 69 92 157 127 82 107 111 127 118 81 152 187 141 120 100 169 144 160 141 234 112 146 -22 67 49 65 104 184
119 107 89 130 123 90 105 112 95 75 51 52 60 76 128 104 102 58 122 110 126 116 115 105 111 113 72 118 118 124 131 109 117 143 169 171 242 135 16 -2 25 79 121 122 174
121 100 107 125 120 131 67 38 49 59 83 79 96 127 92 82 88 111 147 115 116 124 133 153 142 115 126 57 18 25 23 90 134 197 199 322 225 113 31 39 142 187 172 148 114
122 112 113 79 89 76 115 126 35 55 86 87 88 84 84 94 84 101 98 174 122 127 139 139 106 76 62 36 34 46 46 40 67 80 173 169 92 58 97 225 243 201 183 111 83
154 133 122 124 123 45 58 78 49 43 90 70 91 63 78 89 102 189 158 164 133 125 93 111 90 59 53 33 40 51 54 85 74 75 82 93 98 92 205 281 231 178 130 111 133
163 154 168 83 110 109 78 32 58 61 98 132 116 101 123 164 240 244 228 208 171 144 106 114 65 47 14 71 27 36 72 64 90 117 142 138 123 177 201 215 175 145 105 175 195
Wind_Speed
31 38 38 42 42 42 42 39 40 40 38 38 37 36 36 37 36 31 32 29 33 37 36 31 25 25 25 21 24 23 16 12 16 13 5 17 23 36 34 30 37 27 35 30 12
37 38 38 41 43 43 41 41 42 42 40 39 39 38 39 38 33 41 29 32 36 35 34 26 20 18 23 19 23 18 11 9 21 17 14 18 34 26 6 3 6 7 27 18 11
41 39 40 44 44 44 42 42 43 43 42 41 41 40 40 38 33 26 24 34 37 35 39 45 46 22 11 11 16 16 7 8 29 21 37 10 18 22 18 32 27 24 8 7 5
40 43 42 44 43 43 43 43 43 45 44 43 43 43 43 30 32 26 27 34 37 41 43 43 38 18 12 8 11 15 4 8 17 19 28 19 25 11 19 37 19 27 39 9 9
40 41 42 43 40 42 43 44 46 45 46 45 45 44 37 28 32 25 29 35 37 42 43 45 48 49 23 32 41 2 11 5 21 11 9 11 8 10 26 27 29 12 11 10 11
40 41 41 39 37 42 43 45 47 46 47 47 48 47 31 45 26 23 32 35 41 44 43 41 44 49 47 40 38 48 49 11 11 11 11 16 15 33 9 10 4 7 12 13 14
39 38 38 35 39 43 44 47 48 48 49 50 49 41 39 36 29 28 34 40 40 44 46 39 43 41 50 45 48 44 51 15 6 11 23 47 44 18 12 9 8 13 13 13 17
36 35 34 33 41 44 48 48 51 52 52 53 46 37 44 28 27 27 30 34 38 38 40 39 39 41 39 48 47 40 37 46 39 31 39 43 57 50 65 65 49 38 42 22 18
34 36 36 37 42 47 49 51 53 54 51 45 37 30 51 26 28 24 30 35 29 36 38 38 39 40 35 44 51 31 39 60 59 33 44 39 63 54 60 66 38 32 30 26 27
36 36 40 41 44 46 48 50 49 43 35 34 43 41 26 33 26 27 27 29 33 35 41 36 35 35 35 35 48 61 65 66 67 56 45 51 37 72 70 66 63 57 53 52 47
38 38 40 43 46 46 45 42 38 35 36 32 31 32 34 29 27 22 21 28 31 34 39 28 35 38 51 50 53 57 59 58 61 54 60 65 80 79 62 50 54 54 53 57 59
37 39 39 45 46 45 39 38 35 37 46 38 47 44 34 34 35 22 25 30 24 37 36 26 29 38 41 46 49 50 51 53 55 49 68 64 78 55 42 36 46 51 53 55 59
38 40 40 44 46 38 36 41 39 42 46 42 37 41 32 25 35 30 20 29 30 35 35 26 24 35 43 46 44 42 47 55 57 66 55 57 48 45 34 35 42 46 51 55 58
40 42 41 40 37 38 32 31 34 35 45 34 34 31 25 25 34 29 27 30 29 35 39 33 31 34 38 41 42 46 42 47 55 60 53 58 47 45 31 32 38 43 52 59 59
43 43 41 36 40 35 30 31 32 32 42 26 28 25 22 18 24 26 25 24 26 29 32 33 32 36 41 42 40 40 48 48 49 50 53 44 37 39 31 37 41 43 52 60 62
45 43 40 33 35 32 28 29 31 33 39 29 26 25 23 22 26 26 25 26 32 34 25 20 32 37 35 38 35 44 50 40 32 41 47 35 37 41 41 43 41 47 53 61 62
45 42 32 37 30 26 23 29 25 37 29 27 28 27 30 26 24 22 23 25 28 39 34 26 21 32 33 38 34 40 53 51 45 45 49 39 48 41 41 47 43 45 56 59 63
44 33 31 33 30 26 26 27 37 32 28 33 30 29 32 23 32 27 34 33 13 31 41 38 38 27 27 36 44 45 42 48 55 56 60 49 48 45 39 45 34 46 54 59 63
38 33 33 27 31 28 28 34 32 30 33 34 35 39 35 36 36 29 25 34 31 23 32 43 34 32 34 37 39 40 44 42 53 50 50 45 44 45 44 35 41 49 56 57 57
36 32 35 25 28 32 35 41 37 37 38 38 38 35 42 28 32 28 35 31 30 30 31 39 45 37 36 37 36 35 43 49 43 57 59 49 62 57 49 56 67 58 57 55 57
38 37 34 26 27 35 44 40 46 38 42 45 48 47 45 42 35 47 39 36 33 29 31 39 39 42 40 36 37 39 37 32 35 37 49 58 41 41 77 62 66 69 72 68 61
42 42 33 29 36 42 47 44 46 47 46 51 49 52 52 43 45 40 39 34 30 26 36 36 44 47 46 42 38 35 35 34 40 44 43 50 46 32 30 67 68 79 70 64 61
42 42 37 39 47 52 50 48 52 50 52 49 51 46 42 46 43 35 34 30 31 32 37 34 39 54 48 38 40 33 34 33 34 40 37 45 37 48 79 85 73 68 68 67 70
46 46 44 47 54 52 54 59 59 54 57 52 48 40 38 43 39 40 36 34 31 33 33 37 39 36 36 44 59 51 52 43 46 40 38 31 36 61 87 79 67 65 67 72 75
48 51 44 47 62 63 59 53 63 58 50 42 48 40 39 45 38 36 32 35 33 33 35 37 44 40 41 50 46 42 35 34 29 26 35 32 38 58 60 59 63 68 74 81 77
54 51 48 56 48 50 61 68 71 61 46 52 50 39 37 46 42 49 36 33 38 31 33 33 47 48 48 46 29 21 29 27 23 30 33 38 42 49 55 60 67 71 80 83 75
53 52 52 55 57 57 64 71 65 58 55 51 47 41 42 45 42 41 41 43 41 40 32 29 37 48 44 44 70 56 31 38 32 33 43 59 66 69 70 71 71 75 77 75 80
Wind_Direction
315 296 297 288 288 287 272 275 268 261 266 262 274 284 272 277 271 282 301 313 317 306 321 344 50 55 52 80 61 49 81 146 189 204 69 11 15 344 339 336 327 331 321 334 17
296 296 300 291 284 279 271 272 268 264 267 273 276 292 279 288 295 271 307 311 310 329 350 17 227 52 42 49 43 69 125 150 217 225 13 228 241 233 336 306 216 215 328 342 344
284 296 293 280 277 270 268 270 271 267 269 273 275 284 284 291 313 326 322 316 318 337 330 311 305 19 110 153 41 44 152 195 237 11 350 353 239 231 227 234 221 217 253 281 286
287 286 288 279 275 267 265 270 272 269 271 275 274 283 286 323 331 321 328 322 322 318 318 323 339 26 166 55 58 17 197 209 12 10 359 357 354 257 235 238 224 223 255 205 233
288 288 285 278 277 270 268 269 267 271 270 275 277 287 308 328 323 331 330 325 324 323 321 319 315 313 341 341 340 281 221 9 4 2 348 350 291 274 248 241 231 253 263 259 246
287 282 282 283 284 274 272 272 266 272 271 274 279 284 322 297 340 349 331 327 316 314 317 327 323 316 322 334 336 330 332 251 335 244 9 357 338 348 299 358 269 241 248 271 264
286 290 289 289 279 273 273 269 271 272 269 273 281 305 308 311 336 340 328 319 320 315 314 328 325 329 320 330 329 335 333 346 358 14 2 349 345 0 257 265 282 328 320 294 271
292 293 297 300 275 273 268 270 263 265 271 266 287 312 302 335 339 340 335 329 325 326 324 328 331 328 331 326 332 341 345 342 355 1 351 350 335 342 322 322 328 330 327 313 290
298 289 291 289 272 265 264 261 262 265 273 284 304 317 298 346 337 347 332 321 337 329 329 332 330 326 334 329 329 339 334 323 330 352 345 347 329 339 333 296 317 323 323 312 309
291 286 274 278 267 257 265 260 267 286 302 307 294 306 319 328 350 352 347 335 329 330 325 332 332 331 333 334 327 320 316 318 320 332 337 332 324 326 329 328 331 335 336 331 325
284 284 280 272 264 268 268 274 285 297 289 297 319 304 321 339 351 359 7 346 335 331 326 333 335 331 320 325 324 323 323 325 326 333 330 328 320 321 328 342 348 351 349 345 332
288 283 285 269 265 269 281 278 289 296 297 301 289 295 315 324 322 347 349 339 342 327 331 337 335 336 337 334 332 331 330 331 332 339 330 333 325 335 344 359 1 359 360 358 355
287 283 284 274 271 282 284 288 300 308 300 309 299 299 307 324 313 327 7 345 335 329 330 337 343 343 339 338 339 339 335 333 333 332 342 341 346 357 12 15 11 11 8 4 1
282 279 279 284 289 276 297 309 321 319 299 307 309 313 320 326 315 326 339 337 343 336 334 343 355 350 347 344 343 338 346 342 338 339 342 341 344 344 8 7 11 9 3 357 0
281 279 279 282 290 295 307 308 305 311 296 321 316 337 348 335 350 345 349 355 345 344 351 348 354 350 344 343 347 345 343 341 342 342 341 353 355 356 2 354 355 1 355 353 354
279 278 281 294 291 301 313 310 304 297 295 312 320 318 319 319 326 343 353 348 341 341 348 345 350 349 349 349 353 345 344 345 351 350 345 359 355 352 348 345 349 348 350 349 352
277 276 288 286 296 310 319 293 307 287 310 317 311 308 302 316 325 343 348 348 346 337 347 357 356 357 356 352 0 354 345 342 343 343 339 353 340 338 339 344 347 348 347 350 349
272 280 287 285 295 298 293 290 283 307 304 299 301 301 298 317 313 330 326 332 353 339 335 341 341 358 11 355 348 346 349 342 334 334 328 337 337 350 360 346 360 353 352 351 350
277 280 282 286 282 283 280 275 292 306 297 291 292 291 297 303 308 327 331 324 340 356 343 339 346 358 355 353 352 349 344 346 332 331 328 336 338 339 349 6 360 352 349 351 352
279 282 276 287 281 271 273 274 291 292 291 286 292 290 291 309 313 325 322 335 340 340 344 341 332 347 350 351 347 343 345 338 340 334 331 336 331 333 343 343 339 349 351 352 350
276 279 280 282 276 270 268 277 283 291 282 279 278 282 288 296 310 302 317 327 336 342 345 338 334 337 344 344 342 346 347 353 350 345 339 339 353 353 327 343 340 341 342 345 348
271 273 281 269 263 268 271 279 278 278 279 277 282 280 284 299 300 308 313 327 343 353 337 337 333 330 332 339 344 347 345 344 338 340 337 335 330 331 4 350 346 337 343 347 350
273 274 277 263 264 263 270 278 274 277 275 276 278 286 299 294 302 308 318 335 338 335 334 342 335 330 337 347 348 352 353 348 341 336 329 331 341 346 315 329 342 342 343 344 343
269 270 268 262 266 269 270 268 271 274 272 276 284 293 296 295 300 310 317 330 334 332 334 337 327 324 324 326 326 327 326 328 328 328 329 311 295 330 318 330 343 346 346 344 341
264 267 269 269 263 262 266 272 266 267 274 281 282 287 292 297 302 303 308 319 327 329 330 329 321 323 323 323 327 328 322 326 319 312 319 284 322 335 338 343 343 342 340 339 339
261 264 268 268 274 265 262 262 259 266 276 278 281 294 293 291 299 310 311 319 318 329 325 331 322 325 324 327 327 315 320 318 316 320 316 320 324 340 348 346 342 340 337 337 336
264 268 270 269 267 264 263 258 265 270 274 281 290 292 295 298 305 311 314 311 313 315 319 326 328 327 329 334 313 325 346 341 339 338 335 331 333 337 336 337 339 338 337 338 337